Hourly Data Report for October 15, 2015

All times are specified in Local Standard Time (LST). Add 1 hour to adjust for Daylight Saving Time where and when it is observed.

KITCHENER/WATERLOO
ONTARIO

43°27'39.000" N
80°22'43.000" W
321.60 m
6144239
71368
YKF

Download Data

Hourly Data (October 2015)
Hourly Data Report for October 15, 2015
Temp Definition
°C
Dew Point Temp Definition
°C
Rel Hum Definition
%
Wind Dir Definition
10's deg

Wind Spd Definition
km/h
Visibility Definition
km
Stn Press Definition
kPa
Hmdx Definition


Wind Chill Definition


Weather Definition


TIME
00:00 Legend Double Dagger 3.7 2.8 94 21 4 16.1 97.52     LegendNANA
01:00 Legend Double Dagger 3.3 2.4 94 19 4 16.1 97.53     LegendNANA
02:00 Legend Double Dagger 3.9 2.4 90 21 5 16.1 97.50     LegendNANA
03:00 Legend Double Dagger 2.6 1.7 94 17 9 16.1 97.48     LegendNANA
04:00 Legend Double Dagger 3.4 2.2 92 LegendMM 4 16.1 97.46     LegendNANA
05:00 Legend Double Dagger 2.6 1.6 93 15 5 16.1 97.43     LegendNANA
06:00 Legend Double Dagger 6.3 3.6 83 24 15 16.1 97.44     Rain
07:00 Legend Double Dagger 6.3 3.6 83 22 13 16.1 97.43     LegendNANA
08:00 Legend Double Dagger 8.0 4.9 81 25 17 16.1 97.46     LegendNANA
09:00 Legend Double Dagger 10.2 6.2 76 24 15 16.1 97.45     LegendNANA
10:00 Legend Double Dagger 12.8 6.8 67 22 18 16.1 97.42     LegendNANA
11:00 Legend Double Dagger 14.8 6.3 56 22 21 16.1 97.33     LegendNANA
12:00 Legend Double Dagger 17.0 4.2 42 21 28 16.1 97.26     LegendNANA
13:00 Legend Double Dagger 16.5 3.8 42 22 32 16.1 97.17     LegendNANA
14:00 Legend Double Dagger 17.6 2.3 36 24 34 16.1 97.05     LegendNANA
15:00 Legend Double Dagger 14.9 3.0 44 21 30 16.1 97.04     Rain
16:00 Legend Double Dagger 9.9 7.4 84 28 32 4.8 97.14     Heavy Rain,Fog
17:00 Legend Double Dagger 10.4 6.2 75 22 22 16.1 97.05     LegendNANA
18:00 Legend Double Dagger 8.5 5.9 83 26 37 14.5 97.27     Thunderstorms,Moderate Rain
19:00 Legend Double Dagger 8.1 6.1 87 24 18 16.1 97.33     Rain
20:00 Legend Double Dagger 7.7 5.7 87 31 11 16.1 97.38     Rain
21:00 Legend Double Dagger 7.3 5.9 91 25 11 8.1 97.33     Rain,Fog
22:00 Legend Double Dagger 6.9 5.4 90 28 21 16.1 97.44     Moderate Rain
23:00 Legend Double Dagger 5.5 4.9 96 23 5 16.1 97.34     LegendNANA

Notes on Data Quality.

Legend

  • E = Estimated
  • M = Missing
  • NA = Not Available
  • ‡ = Partner data that is not subject to review by the National Climate Archives
Date modified: